| time (UTC) | temp F | wind direction | speed knots | gust knots | rain 1hr in | rain 24hr in | rain mn in | humidity % | barometer mb |
| 20260506210054 | 55 | 191 | 2.6 | 7.8 | 0.00 | 0.00 | 0.00 | 82 | 1020.1 |
| 20260506204552 | 55 | 229 | 3.5 | 7.0 | 0.00 | 0.00 | 0.00 | 81 | 1019.9 |
| 20260506203052 | 55 | 171 | 2.6 | 6.1 | 0.00 | 0.00 | 0.00 | 83 | 1019.8 |
| 20260506201547 | 54 | 192 | 1.7 | 5.2 | 0.00 | 0.00 | 0.00 | 85 | 1020.0 |
| 20260506200047 | 53 | 161 | 1.7 | 5.2 | 0.00 | 0.00 | 0.00 | 84 | 1019.9 |
| 20260506194548 | 54 | 180 | 0.9 | 6.1 | 0.00 | 0.00 | 0.00 | 85 | 1020.0 |
| 20260506193044 | 54 | 127 | 1.7 | 8.7 | 0.00 | 0.00 | 0.00 | 84 | 1019.9 |
| 20260506191543 | 54 | 173 | 3.5 | 6.1 | 0.00 | 0.00 | 0.00 | 84 | 1019.7 |
| 20260506190040 | 54 | 146 | 1.7 | 7.0 | 0.00 | 0.00 | 0.00 | 85 | 1019.6 |
| 20260506184549 | 53 | 176 | 1.7 | 6.1 | 0.00 | 0.00 | 0.00 | 87 | 1019.6 |
| 20260506183052 | 53 | 182 | 1.7 | 7.8 | 0.00 | 0.00 | 0.00 | 87 | 1019.7 |
| 20260506181607 | 53 | 196 | 1.7 | 7.8 | 0.00 | 0.00 | 0.00 | 86 | 1019.4 |
| 20260506180037 | 53 | 188 | 1.7 | 4.3 | 0.00 | 0.00 | 0.00 | 87 | 1019.5 |
| 20260506174536 | 52 | 194 | 3.5 | 7.8 | 0.00 | 0.00 | 0.00 | 87 | 1019.5 |
| 20260506173053 | 52 | 175 | 2.6 | 5.2 | 0.00 | 0.00 | 0.00 | 87 | 1019.3 |
| 20260506171535 | 52 | 193 | 2.6 | 5.2 | 0.00 | 0.00 | 0.00 | 87 | 1019.3 |
| 20260506170038 | 52 | 167 | 1.7 | 7.8 | 0.00 | 0.00 | 0.00 | 87 | 1019.2 |
| 20260506164537 | 52 | 170 | 0.9 | 6.1 | 0.00 | 0.00 | 0.00 | 87 | 1019.3 |
| 20260506163037 | 52 | 196 | 2.6 | 7.0 | 0.00 | 0.00 | 0.00 | 87 | 1019.3 |
| 20260506161530 | 52 | 172 | 2.6 | 7.0 | 0.00 | 0.00 | 0.00 | 87 | 1019.2 |
| 20260506160026 | 52 | 225 | 1.7 | 8.7 | 0.00 | 0.00 | 0.00 | 87 | 1019.4 |
| 20260506154524 | 52 | 202 | 3.5 | 8.7 | 0.00 | 0.00 | 0.00 | 86 | 1019.2 |
| 20260506153023 | 52 | 211 | 3.5 | 7.0 | 0.00 | 0.00 | 0.00 | 87 | 1019.2 |
| 20260506151521 | 52 | 208 | 2.6 | 8.7 | 0.00 | 0.00 | 0.00 | 88 | 1018.9 |
| 20260506150017 | 52 | 197 | 2.6 | 8.7 | 0.00 | 0.00 | 0.00 | 88 | 1018.6 |
| 20260506144520 | 52 | 196 | 1.7 | 9.6 | 0.00 | 0.00 | 0.00 | 87 | 1018.6 |
| 20260506143015 | 52 | 168 | 3.5 | 8.7 | 0.00 | 0.00 | 0.00 | 88 | 1018.5 |
| 20260506141513 | 52 | 183 | 3.5 | 7.8 | 0.00 | 0.00 | 0.00 | 87 | 1018.5 |
| 20260506140015 | 52 | 167 | 3.5 | 8.7 | 0.00 | 0.00 | 0.00 | 87 | 1018.6 |
| 20260506134507 | 0 | 0.0 | 0.0 | 0.00 | 0.00 | 0.00 | 1018.2 | ||
| 20260506133003 | 0 | 0.0 | 0.0 | 0.00 | 0.00 | 0.00 | 1017.8 | ||
| 20260506131600 | 52 | 182 | 2.6 | 10.4 | 0.00 | 0.00 | 0.00 | 87 | 1017.5 |
| 20260506130104 | 52 | 150 | 2.6 | 10.4 | 0.00 | 0.00 | 0.00 | 87 | 1017.7 |
| 20260506124608 | 52 | 186 | 3.5 | 10.4 | 0.00 | 0.00 | 0.00 | 87 | 1017.7 |
| 20260506123056 | 52 | 155 | 2.6 | 8.7 | 0.00 | 0.00 | 0.00 | 87 | 1017.9 |
| 20260506121556 | 52 | 184 | 3.5 | 10.4 | 0.00 | 0.00 | 0.00 | 87 | 1017.7 |
| 20260506120053 | 52 | 173 | 4.3 | 12.2 | 0.00 | 0.00 | 0.00 | 87 | 1017.4 |
| 20260506114553 | 52 | 188 | 4.3 | 9.6 | 0.00 | 0.00 | 0.00 | 87 | 1017.3 |
| 20260506113049 | 52 | 146 | 3.5 | 10.4 | 0.00 | 0.00 | 0.00 | 87 | 1017.2 |
| 20260506111547 | 52 | 180 | 3.5 | 10.4 | 0.00 | 0.00 | 0.00 | 87 | 1017.2 |
| 20260506110046 | 52 | 194 | 2.6 | 13.9 | 0.00 | 0.00 | 0.00 | 88 | 1017.1 |
| 20260506104544 | 52 | 176 | 2.6 | 8.7 | 0.00 | 0.00 | 0.00 | 88 | 1016.8 |
| 20260506103052 | 52 | 209 | 2.6 | 7.8 | 0.00 | 0.00 | 0.00 | 88 | 1016.6 |
| 20260506101540 | 52 | 207 | 3.5 | 8.7 | 0.00 | 0.00 | 0.00 | 87 | 1016.4 |
| 20260506100038 | 52 | 103 | 3.5 | 9.6 | 0.00 | 0.00 | 0.00 | 87 | 1016.2 |
| 20260506094538 | 52 | 155 | 4.3 | 11.3 | 0.00 | 0.00 | 0.00 | 87 | 1016.1 |
| 20260506093034 | 52 | 181 | 2.6 | 7.8 | 0.00 | 0.00 | 0.00 | 87 | 1016.0 |
| 20260506091534 | 52 | 136 | 3.5 | 12.2 | 0.00 | 0.00 | 0.00 | 87 | 1015.9 |
| 20260506090033 | 53 | 173 | 3.5 | 11.3 | 0.00 | 0.00 | 0.00 | 87 | 1015.9 |
| 20260506084529 | 53 | 161 | 3.5 | 11.3 | 0.00 | 0.00 | 0.00 | 87 | 1015.9 |
| 20260506083027 | 53 | 219 | 3.5 | 10.4 | 0.00 | 0.00 | 0.00 | 86 | 1015.8 |
| 20260506081524 | 53 | 171 | 4.3 | 10.4 | 0.00 | 0.00 | 0.00 | 87 | 1015.8 |
| 20260506073019 | 54 | 165 | 3.5 | 12.2 | 0.00 | 0.00 | 0.00 | 86 | 1015.5 |
| 20260506071515 | 54 | 177 | 1.7 | 8.7 | 0.00 | 0.00 | 0.00 | 86 | 1015.4 |
| 20260506061511 | 55 | 188 | 4.3 | 8.7 | 0.00 | 0.00 | 0.00 | 84 | 1015.1 |
| 20260506044510 | 56 | 147 | 2.6 | 8.7 | 0.00 | 0.00 | 0.00 | 81 | 1014.7 |
| 20260506043008 | 56 | 188 | 3.5 | 8.7 | 0.00 | 0.00 | 0.00 | 82 | 1014.5 |
| 20260506041507 | 57 | 178 | 2.6 | 10.4 | 0.00 | 0.00 | 0.00 | 81 | 1014.4 |
| 20260506040007 | 57 | 181 | 2.6 | 9.6 | 0.00 | 0.00 | 0.00 | 81 | 1014.2 |
| 20260506034517 | 57 | 174 | 3.5 | 8.7 | 0.00 | 0.00 | 0.00 | 81 | 1014.0 |
| 20260506033006 | 57 | 166 | 2.6 | 10.4 | 0.00 | 0.00 | 0.00 | 80 | 1014.0 |
| 20260506031505 | 57 | 80 | 2.6 | 10.4 | 0.00 | 0.00 | 0.00 | 80 | 1013.8 |
| 20260506030017 | 57 | 174 | 3.5 | 8.7 | 0.00 | 0.00 | 0.00 | 81 | 1013.6 |
| 20260506024510 | 57 | 192 | 3.5 | 10.4 | 0.00 | 0.00 | 0.00 | 81 | 1013.6 |
| 20260506023010 | 57 | 227 | 2.6 | 9.6 | 0.00 | 0.00 | 0.00 | 82 | 1013.8 |
| 20260506021503 | 58 | 189 | 4.3 | 8.7 | 0.00 | 0.00 | 0.00 | 81 | 1013.9 |
| 20260506020001 | 58 | 167 | 2.6 | 9.6 | 0.00 | 0.00 | 0.00 | 82 | 1013.8 |
| 20260506014600 | 58 | 180 | 1.7 | 7.0 | 0.00 | 0.00 | 0.00 | 82 | 1013.8 |
| 20260506013110 | 58 | 161 | 3.5 | 8.7 | 0.00 | 0.00 | 0.00 | 81 | 1013.9 |
| 20260506011609 | 59 | 134 | 2.6 | 7.0 | 0.00 | 0.00 | 0.00 | 80 | 1013.8 |
| 20260506010058 | 60 | 232 | 1.7 | 7.0 | 0.00 | 0.00 | 0.00 | 78 | 1013.8 |
| 20260506004557 | 59 | 168 | 2.6 | 8.7 | 0.00 | 0.00 | 0.00 | 79 | 1013.9 |
| 20260506003058 | 59 | 241 | 3.5 | 8.7 | 0.00 | 0.00 | 0.00 | 79 | 1013.9 |
| 20260506001557 | 60 | 191 | 3.5 | 8.7 | 0.00 | 0.00 | 0.00 | 78 | 1014.0 |
| 20260506000053 | 60 | 184 | 3.5 | 7.8 | 0.00 | 0.00 | 0.00 | 79 | 1014.2 |
| 20260505234552 | 60 | 195 | 2.6 | 8.7 | 0.00 | 0.00 | 0.00 | 79 | 1014.2 |
| 20260505233051 | 60 | 194 | 3.5 | 10.4 | 0.00 | 0.00 | 0.00 | 79 | 1014.4 |
| 20260505231550 | 60 | 176 | 4.3 | 8.7 | 0.00 | 0.00 | 0.00 | 78 | 1014.5 |
| 20260505230101 | 60 | 158 | 4.3 | 10.4 | 0.00 | 0.00 | 0.00 | 78 | 1014.6 |
| 20260505224548 | 60 | 198 | 4.3 | 9.6 | 0.00 | 0.00 | 0.00 | 78 | 1014.8 |
| 20260505223056 | 61 | 197 | 3.5 | 11.3 | 0.00 | 0.00 | 0.00 | 76 | 1014.9 |
| 20260505221548 | 61 | 177 | 3.5 | 10.4 | 0.00 | 0.00 | 0.00 | 77 | 1014.9 |
| 20260505220046 | 61 | 214 | 5.2 | 14.8 | 0.00 | 0.00 | 0.00 | 77 | 1015.0 |
| 20260505214546 | 61 | 191 | 4.3 | 7.8 | 0.00 | 0.00 | 0.00 | 77 | 1015.1 |
| 20260505213054 | 60 | 134 | 2.6 | 8.7 | 0.00 | 0.00 | 0.00 | 78 | 1015.1 |
| 20260505211545 | 62 | 163 | 2.6 | 7.0 | 0.00 | 0.00 | 0.00 | 76 | 1015.2 |